This is the latest recevied weather packets stored in our database for station/object WP3OF-5. If no packets are shown the sender has not sent any weather packets the latest 10 day(s).
| Time | Temp. | Humidity | Pressure | Rain* | Wind** | Luminosity | Snow |
|---|---|---|---|---|---|---|---|
| 1777830474 | 29.44° C | 75% | 1016.6 hPa | 0 mm | - | - | - |
| 1777830173 | 29.44° C | 73% | 1016.2 hPa | 0 mm | - | - | - |
| 1777829874 | 30° C | 71% | 1016.6 hPa | 0 mm | - | - | - |
| 1777829570 | 30.56° C | 69% | 1016.6 hPa | 0 mm | - | - | - |
| 1777829267 | 30.56° C | 69% | 1016.6 hPa | 0 mm | - | - | - |
| 1777828964 | 30.56° C | 70% | 1016.5 hPa | 0 mm | - | - | - |
| 1777828660 | 31.11° C | 69% | 1016.5 hPa | 0 mm | - | - | - |
| 1777828358 | 31.11° C | 68% | 1016.8 hPa | 0 mm | - | - | - |
| 1777828055 | 31.11° C | 70% | 1016.8 hPa | 0 mm | - | - | - |
| 1777827751 | 30.56° C | 72% | 1016.8 hPa | 0 mm | - | - | - |
| 1777827448 | 30° C | 71% | 1016.8 hPa | 0 mm | - | - | - |
| 1777827146 | 30° C | 72% | 1017 hPa | 0 mm | - | - | - |
| 1777826841 | 30.56° C | 69% | 1017.4 hPa | 0 mm | - | - | - |
| 1777826540 | 30° C | 72% | 1017.4 hPa | 0 mm | - | - | - |
| 1777826235 | 29.44° C | 73% | 1017.2 hPa | 0 mm | - | - | - |
| 1777825933 | 29.44° C | 72% | 1017.3 hPa | 0 mm | - | - | - |
| 1777825630 | 30° C | 69% | 1017.6 hPa | 0 mm | - | - | - |
| 1777825328 | 30° C | 70% | 1017.3 hPa | 0 mm | - | - | - |
| 1777825024 | 30° C | 69% | 1017.2 hPa | 0 mm | - | - | - |
| 1777824720 | 29.44° C | 70% | 1017.3 hPa | 0 mm | - | - | - |
| 1777824418 | 30° C | 67% | 1017.5 hPa | 0 mm | - | - | - |
| 1777824113 | 30.56° C | 68% | 1017.7 hPa | 0 mm | - | - | - |
| 1777823809 | 31.11° C | 68% | 1017.9 hPa | 0 mm | - | - | - |
| 1777823508 | 31.11° C | 64% | 1017.6 hPa | 0 mm | - | - | - |
| 1777823204 | 31.11° C | 65% | 1017.7 hPa | 0 mm | - | - | - |
* Rain latest hour (hover to see other rain measurements)
** Current wind speed in m/s (hover to see current wind gust speed)